• Join FlightAware (Why Join?)
  • Login
  • US Flag 
11:46PM EST


 

Airport Tracker/Info


-or-


 

Live Flight TrackerFlight Track Log ✈ AAL963 ✈ 17-Jun-2013 ✈ KDFW - SBGR / GRU

Flight Track Log - Related Links

Times and Time Zones

All times are in EDT time to prevent confusion due to time zone crossing. See the AAL963 flight status page for this flight to view local times or setup timezone preferences in your user account.

Time Position Orientation Groundspeed Altitude Reporting Facility
EDT Latitude Longitude Course Direction KTS MPH feet Rate Location/Type
10:47PM 32.9280 -97.0290 North 177 204 1,700  Level FlightAware
10:48PM 32.9520 -97.0250 North 187 215 2,300 900 Climbing FlightAware
10:48PM 32.9730 -97.0200 11° North 210 242 2,500 420 Climbing FlightAware
10:49PM 32.9900 -97.0160 11° North 231 266 2,600 720 Climbing FlightAware
10:49PM 33.0160 -97.0110 North 252 290 3,000 1,200 Climbing FlightAware
10:49PM 33.0390 -97.0060 10° North 263 303 3,500 1,500 Climbing FlightAware
10:49PM 33.0540 -97.0000 19° North 265 305 3,800 1,680 Climbing FlightAware
10:50PM 33.0680 -96.9840 44° Northeast 266 306 4,300 1,920 Climbing FlightAware
10:50PM 33.0730 -96.9690 68° East 265 305 4,700 1,440 Climbing FlightAware
10:50PM 33.0670 -96.9260 99° East 277 319 5,300 1,440 Climbing FlightAware
10:51PM 33.0480 -96.8890 121° Southeast 288 331 6,100 1,800 Climbing FlightAware
10:51PM 33.0280 -96.8520 123° Southeast 294 338 7,000 1,980 Climbing FlightAware
10:52PM 33.0070 -96.8100 121° Southeast 297 342 8,000 1,860 Climbing FlightAware
10:52PM 32.9930 -96.7810 120° Southeast 300 345 8,600 1,620 Climbing FlightAware
10:52PM 32.9790 -96.7530 121° Southeast 307 353 9,100 1,680 Climbing FlightAware
10:53PM 32.9560 -96.7090 122° Southeast 312 359 10,000 1,260 Climbing FlightAware
10:54PM 32.9240 -96.6470 122° Southeast 343 395 10,600 960 Climbing FlightAware
10:54PM 32.8890 -96.5800 122° Southeast 374 430 11,300 1,260 Climbing FlightAware
10:55PM 32.8500 -96.5030 121° Southeast 394 453 12,400 1,800 Climbing FlightAware
10:56PM 32.8070 -96.4210 122° Southeast 404 465 13,900 1,920 Climbing FlightAware
10:56PM 32.7690 -96.3430 120° Southeast 413 475 15,200 1,980 Climbing FlightAware
10:57PM 32.7470 -96.2470 105° East 420 483 16,700 1,920 Climbing FlightAware
10:58PM 32.7330 -96.1530 100° East 432 497 17,900 1,740 Climbing FlightAware
10:59PM 32.7170 -96.0480 100° East 443 510 19,200 1,740 Climbing FlightAware
10:59PM 32.7010 -95.9480 101° East 448 516 20,400 1,680 Climbing FlightAware
11:00PM 32.6810 -95.8280 101° East 456 525 21,800 1,560 Climbing FlightAware
11:00PM 32.6745 -95.7849 100° East 455 524 22,200 1,440 Climbing FlightAware ADS-B
11:01PM 32.6606 -95.6915 100° East 464 534 23,100 1,500 Climbing FlightAware ADS-B
11:01PM 32.6586 -95.6327 92° East 467 537 23,700 1,260 Climbing FlightAware ADS-B
11:02PM 32.6604 -95.5969 87° East 469 540 23,900 1,080 Climbing FlightAware ADS-B
11:02PM 32.6677 -95.4925 85° East 475 547 24,700 180 Climbing FlightAware ADS-B
11:03PM 32.6760 -95.3890 85° East 472 543 24,200 -360 Descending FlightAware
11:04PM 32.6820 -95.3060 85° East 472 543 24,200 2,040 Level FlightAware
11:05PM 32.6930 -95.1210 86° East 505 581 27,200 2,700 Climbing FlightAware
11:05PM 32.6988 -95.0245 86° East 510 587 27,900 1,200 Climbing FlightAware ADS-B
11:06PM 32.7045 -94.9349 86° East 514 592 28,500 900 Climbing FlightAware ADS-B
11:07PM 32.6997 -94.7664 92° East 515 593 29,300 900 Climbing FlightAware ADS-B
11:07PM 32.6889 -94.7282 109° East 529 609 29,600 1,140 Climbing FlightAware ADS-B
11:07PM 32.6754 -94.6944 115° Southeast 529 609 29,800 1,080 Climbing FlightAware ADS-B
11:08PM 32.6344 -94.6188 123° Southeast 528 608 30,400 1,140 Climbing FlightAware ADS-B
11:08PM 32.5858 -94.5327 124° Southeast 528 608 31,100 1,200 Climbing FlightAware ADS-B
11:09PM 32.5441 -94.4594 124° Southeast 523 602 31,800 1,680 Climbing FlightAware ADS-B
11:09PM 32.5002 -94.3821 124° Southeast 509 586 32,900 1,500 Climbing FlightAware ADS-B
11:10PM 32.4599 -94.3116 124° Southeast 510 587 33,400 960 Climbing FlightAware ADS-B
11:10PM 32.4194 -94.2404 124° Southeast 508 585 33,900 900 Climbing FlightAware ADS-B
11:11PM 32.3508 -94.1208 124° Southeast 508 585 34,700 780 Climbing FlightAware ADS-B
11:12PM 32.3105 -94.0508 124° Southeast 510 587 35,000 240 Climbing FlightAware ADS-B
11:12PM 32.2676 -93.9764 124° Southeast 511 588 35,000  Level FlightAware ADS-B
11:13PM 32.2197 -93.8934 124° Southeast 510 587 35,000  Level FlightAware ADS-B
11:14PM 32.1655 -93.7995 124° Southeast 510 587 35,000  Level FlightAware ADS-B
11:14PM 32.1214 -93.7233 124° Southeast 509 586 35,000  Level Houston Center
11:20PM 31.6740 -92.9599 124° Southeast 501 577 35,000  Level FlightAware ADS-B
11:20PM 31.6303 -92.8863 125° Southeast 498 573 35,000  Level FlightAware ADS-B
11:21PM 31.5684 -92.7697 122° Southeast 498 573 35,000  Level FlightAware ADS-B
11:22PM 31.5096 -92.6094 113° Southeast 497 572 35,000  Level FlightAware ADS-B
11:23PM 31.4709 -92.5011 113° Southeast 494 568 35,000  Level FlightAware ADS-B
11:24PM 31.4226 -92.3658 113° Southeast 494 568 35,000  Level FlightAware ADS-B
11:24PM 31.3963 -92.2920 113° Southeast 492 566 35,000  Level FlightAware ADS-B
11:25PM 31.3464 -92.1511 113° Southeast 494 568 35,000  Level Houston Center
11:27PM 31.2908 -91.9942 112° Southeast 491 565 35,000  Level Houston Center
11:28PM 31.2372 -91.8486 113° Southeast 489 563 35,000  Level Houston Center
11:29PM 31.1856 -91.7031 113° Southeast 487 560 35,000  Level Houston Center
11:30PM 31.1322 -91.5572 113° Southeast 488 562 35,000  Level Houston Center
11:31PM 31.0797 -91.4117 113° Southeast 485 558 35,000  Level Houston Center
11:36PM 30.7800 -90.6090 113° Southeast 490 564 35,000  Level FlightAware
11:37PM 30.7500 -90.5290 114° Southeast 490 564 35,000  Level FlightAware
11:37PM 30.7160 -90.4340 113° Southeast 490 564 35,000  Level FlightAware
11:38PM 30.6800 -90.3350 113° Southeast 490 564 35,000  Level FlightAware
11:39PM 30.6090 -90.1560 115° Southeast 485 558 35,000  Level FlightAware
11:40PM 30.5790 -90.0770 114° Southeast 486 559 35,000  Level FlightAware
11:40PM 30.5340 -89.9600 114° Southeast 486 559 35,000  Level FlightAware
11:41PM 30.4940 -89.8540 114° Southeast 487 560 35,000  Level FlightAware
11:42PM 30.4590 -89.7630 114° Southeast 488 562 35,000  Level FlightAware
11:43PM 30.4180 -89.6570 114° Southeast 489 563 35,000  Level FlightAware
11:43PM 30.3780 -89.5550 114° Southeast 489 563 35,000  Level FlightAware
11:44PM 30.3420 -89.4620 114° Southeast 490 564 35,000  Level FlightAware
11:45PM 30.3000 -89.3540 114° Southeast 491 565 35,000  Level FlightAware
11:45PM 30.2650 -89.2630 114° Southeast 491 565 35,000  Level FlightAware
11:46PM 30.2270 -89.1670 115° Southeast 491 565 35,000  Level FlightAware
11:47PM 30.1840 -89.0550 114° Southeast 492 566 35,000  Level FlightAware
11:48PM 30.1430 -88.9520 115° Southeast 493 567 35,000  Level FlightAware
11:48PM 30.1040 -88.8540 115° Southeast 494 568 35,000  Level FlightAware
11:49PM 30.0630 -88.7510 115° Southeast 494 568 35,000  Level FlightAware
11:50PM 30.0230 -88.6490 114° Southeast 495 570 35,000  Level FlightAware
11:50PM 29.9830 -88.5470 114° Southeast 494 568 35,000  Level FlightAware
11:51PM 29.9450 -88.4540 115° Southeast 493 567 35,000  Level FlightAware
11:52PM 29.9050 -88.3530 115° Southeast 491 565 35,000  Level FlightAware
11:52PM 29.8660 -88.2540 114° Southeast 490 564 35,000  Level FlightAware
11:53PM 29.8190 -88.1350 114° Southeast 489 563 35,000  Level FlightAware
11:54PM 29.7730 -88.0230 115° Southeast 489 563 35,000  Level FlightAware
11:55PM 29.7330 -87.9250 115° Southeast 488 562 35,000  Level FlightAware
11:55PM 29.6920 -87.8240 115° Southeast 487 560 35,000  Level FlightAware
11:56PM 29.6530 -87.7280 115° Southeast 487 560 35,000  Level FlightAware
11:57PM 29.6130 -87.6290 115° Southeast 487 560 35,000  Level FlightAware
11:58PM 29.5610 -87.5020 115° Southeast 487 560 35,000  Level FlightAware
11:58PM 29.5310 -87.4280 115° Southeast 487 560 35,000 -60 Level FlightAware
11:59PM 29.5840 -87.5580 295° West 35,000 -120 Level FlightAware
12:00AM 29.4536 -87.2400 295° West 477 549 34,900  Descending Jacksonville Center
12:00AM 29.4333 -87.1897 115° Southeast 488 562 35,000 60 Climbing Houston Center
12:01AM 29.3756 -87.0503 115° Southeast 488 562 35,000  Level Houston Center
12:02AM 29.3183 -86.9097 115° Southeast 487 560 35,000  Level Houston Center
12:03AM 29.2853 -86.8328 116° Southeast 486 559 35,000 -120 Level Jacksonville Center
12:04AM 29.2247 -86.6900 116° Southeast 486 559 34,900  Descending Jacksonville Center
12:05AM 29.1683 -86.5522 115° Southeast 486 559 35,000  Climbing Jacksonville Center
12:06AM 29.1094 -86.4144 116° Southeast 481 554 35,000  Level Jacksonville Center
12:07AM 29.0508 -86.2747 116° Southeast 481 554 35,000  Level Jacksonville Center
12:08AM 28.9894 -86.1397 117° Southeast 481 554 35,000  Level Jacksonville Center
12:09AM 28.9197 -86.0069 121° Southeast 481 554 35,000  Level Jacksonville Center
12:10AM 28.8500 -85.8722 121° Southeast 487 560 35,000  Level Jacksonville Center
12:15AM 28.4840 -85.1660 121° Southeast 483 556 35,000  Level FlightAware
12:16AM 28.4380 -85.0720 119° Southeast 483 556 35,000  Level FlightAware
12:16AM 28.4040 -85.0020 119° Southeast 483 556 35,000  Level FlightAware
12:17AM 28.3600 -84.9110 119° Southeast 483 556 35,000  Level FlightAware
12:18AM 28.3270 -84.8430 119° Southeast 483 556 35,000  Level FlightAware
12:18AM 28.2360 -84.6960 125° Southeast 482 555 35,000  Level FlightAware
12:19AM 28.1780 -84.5850 121° Southeast 482 555 35,000  Level FlightAware
12:20AM 28.1440 -84.5180 120° Southeast 482 555 35,000  Level FlightAware
12:21AM 28.0600 -84.3930 127° Southeast 481 554 35,000  Level FlightAware
12:21AM 28.0040 -84.3140 129° Southeast 485 558 35,000  Level FlightAware
12:22AM 27.9400 -84.2250 129° Southeast 485 558 35,000  Level FlightAware
12:23AM 27.8830 -84.1470 130° Southeast 486 559 35,000  Level FlightAware
12:24AM 27.8260 -84.0690 130° Southeast 487 560 35,000  Level FlightAware
12:24AM 27.7610 -83.9800 130° Southeast 488 562 35,000  Level FlightAware
12:25AM 27.7040 -83.9010 129° Southeast 489 563 35,000  Level FlightAware
12:26AM 27.6390 -83.8120 129° Southeast 489 563 35,000  Level FlightAware
12:26AM 27.5820 -83.7330 129° Southeast 490 564 35,000  Level FlightAware
12:27AM 27.5170 -83.6450 130° Southeast 486 559 35,000  Level FlightAware
12:28AM 27.4580 -83.5640 129° Southeast 486 559 35,000  Level FlightAware
12:28AM 27.4090 -83.4970 129° Southeast 486 559 35,000  Level FlightAware
12:29AM 27.3350 -83.3970 130° Southeast 492 566 35,000  Level FlightAware
12:30AM 27.2800 -83.3220 130° Southeast 493 567 35,000  Level FlightAware
12:31AM 27.2220 -83.2430 130° Southeast 492 566 35,000  Level FlightAware
12:32AM 27.1360 -83.1270 130° Southeast 487 560 35,000  Level FlightAware
12:32AM 27.0700 -83.0380 130° Southeast 491 565 35,000  Level FlightAware
12:33AM 26.9740 -82.9070 129° Southeast 490 564 35,000  Level FlightAware
12:34AM 26.9150 -82.8290 130° Southeast 486 559 35,000  Level FlightAware
12:35AM 26.8480 -82.7390 130° Southeast 486 559 35,000  Level FlightAware
12:35AM 26.8010 -82.6760 130° Southeast 487 560 35,000  Level FlightAware
12:36AM 26.7230 -82.5720 130° Southeast 488 562 35,000  Level FlightAware
12:37AM 26.6650 -82.4940 130° Southeast 491 565 35,000  Level FlightAware
12:38AM 26.6120 -82.4240 130° Southeast 491 565 35,000  Level FlightAware
12:38AM 26.5400 -82.3270 130° Southeast 497 572 35,000  Level FlightAware
12:39AM 26.4740 -82.2390 130° Southeast 499 574 35,000  Level FlightAware
12:40AM 26.4210 -82.1700 131° Southeast 501 577 35,000  Level FlightAware
12:40AM 26.3540 -82.0810 130° Southeast 505 581 35,000  Level FlightAware
12:41AM 26.2940 -82.0010 130° Southeast 503 579 35,000  Level FlightAware
12:42AM 26.2250 -81.9110 131° Southeast 504 580 35,000  Level FlightAware
12:42AM 26.1640 -81.8300 130° Southeast 505 581 35,000  Level FlightAware
12:43AM 26.0950 -81.7400 130° Southeast 505 581 35,000  Level FlightAware
12:44AM 26.0350 -81.6610 130° Southeast 505 581 35,000  Level FlightAware
12:45AM 25.9730 -81.5800 130° Southeast 503 579 35,000  Level FlightAware
12:45AM 25.9050 -81.4910 130° Southeast 503 579 35,000  Level FlightAware
12:46AM 25.8430 -81.4100 130° Southeast 503 579 35,000  Level FlightAware
12:47AM 25.7820 -81.3310 131° Southeast 503 579 35,000  Level FlightAware
12:47AM 25.7210 -81.2510 130° Southeast 504 580 35,000  Level FlightAware
12:48AM 25.6520 -81.1620 131° Southeast 506 582 35,000  Level FlightAware
12:49AM 25.5830 -81.0730 131° Southeast 508 585 35,000  Level FlightAware
12:49AM 25.5200 -80.9920 131° Southeast 510 587 35,000 420 Level FlightAware
12:50AM 25.4590 -80.9130 131° Southeast 515 593 35,600 660 Climbing FlightAware
12:51AM 25.3880 -80.8210 130° Southeast 523 602 36,000 600 Climbing FlightAware
12:52AM 25.3250 -80.7410 131° Southeast 524 603 36,500 600 Climbing FlightAware
12:52AM 25.2540 -80.6500 131° Southeast 522 601 36,900 360 Climbing FlightAware
12:53AM 25.1900 -80.5670 130° Southeast 523 602 37,000 60 Climbing FlightAware
12:54AM 25.1260 -80.4860 131° Southeast 522 601 37,000  Level FlightAware
12:54AM 25.0530 -80.3930 131° Southeast 521 600 37,000  Level FlightAware
12:55AM 24.9910 -80.3140 131° Southeast 521 600 37,000  Level FlightAware
12:56AM 24.9260 -80.2310 131° Southeast 520 598 37,000  Level FlightAware
12:57AM 24.8590 -80.1460 131° Southeast 522 601 37,000  Level FlightAware
12:57AM 24.7830 -80.0510 131° Southeast 523 602 37,000  Level FlightAware
12:58AM 24.7200 -79.9700 131° Southeast 522 601 37,000  Level FlightAware
12:59AM 24.6470 -79.8780 131° Southeast 523 602 37,000  Level FlightAware
12:59AM 24.5890 -79.8050 131° Southeast 525 604 37,000  Level FlightAware
01:00AM 24.5140 -79.7180 133° Southeast 527 606 37,000  Level FlightAware
01:01AM 24.4310 -79.6430 141° Southeast 519 597 37,000  Level FlightAware
01:01AM 24.3590 -79.5860 144° Southeast 519 597 37,000  Level FlightAware
01:02AM 24.2920 -79.5310 143° Southeast 519 597 37,000  Level FlightAware
01:03AM 24.1930 -79.4540 145° Southeast 519 597 37,000  Level FlightAware
01:03AM 24.1340 -79.4060 143° Southeast 519 597 37,000  Level FlightAware
01:04AM 24.0560 -79.3410 143° Southeast 519 597 37,000  Level FlightAware
01:05AM 23.9610 -79.2720 146° Southeast 517 595 37,000  Level FlightAware
01:06AM 23.8810 -79.2060 143° Southeast 517 595 37,000  Level FlightAware
01:06AM 23.8210 -79.1570 143° Southeast 517 595 37,000  Level FlightAware
01:07AM 23.7410 -79.0910 143° Southeast 517 595 37,000  Level FlightAware
01:08AM 23.6830 -79.0430 143° Southeast 517 595 37,000  Level FlightAware
01:08AM 23.6050 -78.9790 143° Southeast 517 595 37,000  Level FlightAware
01:09AM 23.5470 -78.9310 143° Southeast 517 595 37,000  Level FlightAware
01:10AM 23.4720 -78.8700 143° Southeast 517 595 37,000  Level FlightAware
01:10AM 23.4120 -78.8200 143° Southeast 517 595 37,000  Level FlightAware
01:11AM 23.3550 -78.7740 143° Southeast 517 595 37,000  Level FlightAware
01:12AM 23.2770 -78.7100 143° Southeast 517 595 37,000  Level FlightAware
01:12AM 23.2170 -78.6600 143° Southeast 517 595 37,000  Level FlightAware
01:13AM 23.1410 -78.5980 143° Southeast 517 595 37,000  Level FlightAware
01:14AM 23.0820 -78.5500 143° Southeast 517 595 37,000  Level FlightAware
01:17AM 22.7858 -78.3167 144° Southeast  Level Estimated
01:18AM 22.6746 -78.2294 144° Southeast  Level Estimated
01:19AM 22.5634 -78.1424 144° Southeast  Level Estimated
01:20AM 22.4522 -78.0554 144° Southeast  Level Estimated
01:21AM 22.3409 -77.9686 144° Southeast  Level Estimated
01:22AM 22.2295 -77.8819 144° Southeast  Level Estimated
01:23AM 22.1181 -77.7954 144° Southeast  Level Estimated
01:24AM 22.0067 -77.7090 144° Southeast  Level Estimated
01:25AM 21.8952 -77.6227 144° Southeast  Level Estimated
01:26AM 21.7837 -77.5366 144° Southeast  Level Estimated
01:27AM 21.6721 -77.4506 144° Southeast  Level Estimated
01:28AM 21.5605 -77.3648 144° Southeast  Level Estimated
01:29AM 21.4488 -77.2790 144° Southeast  Level Estimated
01:30AM 21.3371 -77.1934 144° Southeast  Level Estimated
01:31AM 21.2254 -77.1079 145° Southeast  Level Estimated
01:32AM 21.1136 -77.0226 145° Southeast  Level Estimated
01:33AM 21.0018 -76.9374 145° Southeast  Level Estimated
01:34AM 20.8899 -76.8523 145° Southeast  Level Estimated
01:35AM 20.7780 -76.7674 145° Southeast  Level Estimated
01:36AM 20.6660 -76.6825 145° Southeast  Level Estimated
01:37AM 20.5540 -76.5978 145° Southeast  Level Estimated
01:38AM 20.4419 -76.5133 145° Southeast  Level Estimated
01:39AM 20.3299 -76.4288 145° Southeast  Level Estimated
01:40AM 20.2178 -76.3445 145° Southeast  Level Estimated
01:41AM 20.1056 -76.2602 145° Southeast  Level Estimated
01:42AM 19.9934 -76.1762 145° Southeast  Level Estimated
01:43AM 19.8811 -76.0922 145° Southeast  Level Estimated
01:44AM 19.7689 -76.0083 145° Southeast  Level Estimated
01:45AM 19.6565 -75.9246 145° Southeast  Level Estimated
01:46AM 19.5442 -75.8410 145° Southeast  Level Estimated
01:47AM 19.4318 -75.7575 145° Southeast  Level Estimated
01:48AM 19.3193 -75.6741 145° Southeast  Level Estimated
01:49AM 19.2069 -75.5908 145° Southeast  Level Estimated
01:50AM 19.0944 -75.5077 145° Southeast  Level Estimated
01:51AM 18.9818 -75.4246 145° Southeast  Level Estimated
01:52AM 18.8692 -75.3417 145° Southeast  Level Estimated
01:53AM 18.7517 -75.2552 145° Southeast  Level Estimated
01:54AM 18.6341 -75.1689 145° Southeast  Level Estimated
01:55AM 18.5165 -75.0827 145° Southeast  Level Estimated
01:56AM 18.3988 -74.9966 145° Southeast  Level Estimated
01:57AM 18.2811 -74.9107 145° Southeast  Level Estimated
01:58AM 18.1633 -74.8248 145° Southeast  Level Estimated
01:59AM 18.0455 -74.7391 145° Southeast  Level Estimated
02:00AM 17.9277 -74.6535 145° Southeast  Level Estimated
02:01AM 17.8099 -74.5680 145° Southeast  Level Estimated
02:02AM 17.6920 -74.4826 145° Southeast  Level Estimated
02:03AM 17.5740 -74.3973 145° Southeast  Level Estimated
02:04AM 17.4561 -74.3121 145° Southeast  Level Estimated
02:05AM 17.3381 -74.2271 145° Southeast  Level Estimated
02:06AM 17.2200 -74.1421 145° Southeast  Level Estimated
02:07AM 17.1019 -74.0573 146° Southeast  Level Estimated
02:08AM 16.9838 -73.9725 146° Southeast  Level Estimated
02:09AM 16.8657 -73.8879 146° Southeast  Level Estimated
02:10AM 16.7475 -73.8034 146° Southeast  Level Estimated
02:11AM 16.6293 -73.7190 146° Southeast  Level Estimated
02:12AM 16.5110 -73.6347 146° Southeast  Level Estimated
02:13AM 16.3927 -73.5505 146° Southeast  Level Estimated
02:14AM 16.2744 -73.4663 146° Southeast  Level Estimated
02:15AM 16.1561 -73.3823 146° Southeast  Level Estimated
02:16AM 16.0377 -73.2984 146° Southeast  Level Estimated
02:17AM 15.9193 -73.2146 146° Southeast  Level Estimated
02:18AM 15.8008 -73.1309 146° Southeast  Level Estimated
02:19AM 15.6823 -73.0473 146° Southeast  Level Estimated
02:20AM 15.5638 -72.9638 146° Southeast  Level Estimated
02:21AM 15.4453 -72.8804 146° Southeast  Level Estimated
02:22AM 15.3267 -72.7971 146° Southeast  Level Estimated
02:23AM 15.2081 -72.7138 146° Southeast  Level Estimated
02:24AM 15.0895 -72.6307 146° Southeast  Level Estimated
02:25AM 14.9708 -72.5477 146° Southeast  Level Estimated
02:26AM 14.8521 -72.4647 146° Southeast  Level Estimated
02:27AM 14.7334 -72.3819 146° Southeast  Level Estimated
02:28AM 14.6146 -72.2991 146° Southeast  Level Estimated
02:29AM 14.4958 -72.2164 146° Southeast  Level Estimated
02:30AM 14.3770 -72.1338 146° Southeast  Level Estimated
02:31AM 14.2582 -72.0513 146° Southeast  Level Estimated
02:32AM 14.1393 -71.9689 146° Southeast  Level Estimated
02:33AM 14.0204 -71.8866 146° Southeast  Level Estimated
02:34AM 13.9015 -71.8043 146° Southeast  Level Estimated
02:35AM 13.7825 -71.7222 146° Southeast  Level Estimated
02:36AM 13.6636 -71.6401 146° Southeast  Level Estimated
02:37AM 13.5445 -71.5581 146° Southeast  Level Estimated
02:38AM 13.4255 -71.4762 146° Southeast  Level Estimated
02:39AM 13.3064 -71.3944 146° Southeast  Level Estimated
02:40AM 13.1874 -71.3126 146° Southeast  Level Estimated
02:41AM 13.0682 -71.2309 146° Southeast  Level Estimated
02:42AM 12.9491 -71.1494 146° Southeast  Level Estimated
02:43AM 12.8300 -71.0678 146° Southeast  Level Estimated
02:44AM 12.7108 -70.9864 146° Southeast  Level Estimated
02:45AM 12.5915 -70.9051 146° Southeast  Level Estimated
02:46AM 12.4723 -70.8238 146° Southeast  Level Estimated
02:47AM 12.3531 -70.7426 146° Southeast  Level Estimated
02:48AM 12.2338 -70.6614 146° Southeast  Level Estimated
02:49AM 12.1145 -70.5804 146° Southeast  Level Estimated
02:50AM 11.9951 -70.4994 146° Southeast  Level Estimated
02:51AM 11.8758 -70.4185 146° Southeast  Level Estimated
02:52AM 11.7564 -70.3376 146° Southeast  Level Estimated
02:53AM 11.6370 -70.2569 146° Southeast  Level Estimated
02:54AM 11.5176 -70.1762 146° Southeast  Level Estimated
02:55AM 11.3981 -70.0955 147° Southeast  Level Estimated
02:56AM 11.2786 -70.0150 147° Southeast  Level Estimated
02:57AM 11.1591 -69.9344 147° Southeast  Level Estimated
02:58AM 11.0396 -69.8540 147° Southeast  Level Estimated
02:59AM 10.9201 -69.7736 147° Southeast  Level Estimated
03:00AM 10.8005 -69.6933 147° Southeast  Level Estimated
03:01AM 10.6810 -69.6131 147° Southeast  Level Estimated
03:02AM 10.5614 -69.5329 147° Southeast  Level Estimated
03:03AM 10.4417 -69.4528 147° Southeast  Level Estimated
03:04AM 10.3221 -69.3727 147° Southeast  Level Estimated
03:05AM 10.2024 -69.2927 147° Southeast  Level Estimated
03:06AM 10.0828 -69.2128 147° Southeast  Level Estimated
03:07AM 9.9631 -69.1329 147° Southeast  Level Estimated
03:08AM 9.8434 -69.0531 147° Southeast  Level Estimated
03:09AM 9.7236 -68.9734 147° Southeast  Level Estimated
03:10AM 9.6039 -68.8937 147° Southeast  Level Estimated
03:11AM 9.4841 -68.8140 147° Southeast  Level Estimated
03:12AM 9.3643 -68.7344 147° Southeast  Level Estimated
03:13AM 9.2445 -68.6549 147° Southeast  Level Estimated
03:14AM 9.1247 -68.5754 147° Southeast  Level Estimated
03:15AM 9.0048 -68.4960 147° Southeast  Level Estimated
03:16AM 8.8850 -68.4166 147° Southeast  Level Estimated
03:17AM 8.7651 -68.3373 147° Southeast  Level Estimated
03:18AM 8.6452 -68.2580 147° Southeast  Level Estimated
03:19AM 8.5253 -68.1788 147° Southeast  Level Estimated
03:20AM 8.4054 -68.0996 147° Southeast  Level Estimated
03:21AM 8.2854 -68.0205 147° Southeast  Level Estimated
03:22AM 8.1655 -67.9415 147° Southeast  Level Estimated
03:23AM 8.0455 -67.8624 147° Southeast  Level Estimated
03:24AM 7.9255 -67.7834 147° Southeast  Level Estimated
03:25AM 7.8056 -67.7045 147° Southeast  Level Estimated
03:26AM 7.6855 -67.6256 147° Southeast  Level Estimated
03:27AM 7.5655 -67.5468 147° Southeast  Level Estimated
03:28AM 7.4455 -67.4680 147° Southeast  Level Estimated
03:29AM 7.3254 -67.3892 147° Southeast  Level Estimated
03:30AM 7.2053 -67.3105 147° Southeast  Level Estimated
03:31AM 7.0853 -67.2318 147° Southeast  Level Estimated
03:32AM 6.9652 -67.1532 147° Southeast  Level Estimated
03:33AM 6.8450 -67.0746 147° Southeast  Level Estimated
03:34AM 6.7249 -66.9961 147° Southeast  Level Estimated
03:35AM 6.6048 -66.9176 147° Southeast  Level Estimated
03:36AM 6.4847 -66.8391 147° Southeast  Level Estimated
03:37AM 6.3647 -66.7608 147° Southeast  Level Estimated
03:38AM 6.2447 -66.6825 147° Southeast  Level Estimated
03:39AM 6.1248 -66.6043 147° Southeast  Level Estimated
03:40AM 6.0048 -66.5261 147° Southeast  Level Estimated
03:41AM 5.8848 -66.4480 147° Southeast  Level Estimated
03:42AM 5.7648 -66.3698 147° Southeast  Level Estimated
03:43AM 5.6448 -66.2917 147° Southeast  Level Estimated
03:44AM 5.5248 -66.2137 147° Southeast  Level Estimated
03:45AM 5.4047 -66.1357 147° Southeast  Level Estimated
03:46AM 5.2847 -66.0577 147° Southeast  Level Estimated
03:47AM 5.1646 -65.9797 147° Southeast  Level Estimated
03:48AM 5.0445 -65.9018 147° Southeast  Level Estimated
03:49AM 4.9245 -65.8239 147° Southeast  Level Estimated
03:50AM 4.8044 -65.7460 147° Southeast  Level Estimated
03:51AM 4.6843 -65.6681 147° Southeast  Level Estimated
03:52AM 4.5642 -65.5903 147° Southeast  Level Estimated
03:53AM 4.4441 -65.5125 147° Southeast  Level Estimated
03:54AM 4.3240 -65.4347 147° Southeast  Level Estimated
03:55AM 4.2038 -65.3570 147° Southeast  Level Estimated
03:56AM 4.0837 -65.2793 147° Southeast  Level Estimated
03:57AM 3.9636 -65.2016 147° Southeast  Level Estimated
03:58AM 3.8434 -65.1239 147° Southeast  Level Estimated
03:59AM 3.7233 -65.0462 147° Southeast  Level Estimated
04:00AM 3.6031 -64.9686 147° Southeast  Level Estimated
04:01AM 3.4829 -64.8910 147° Southeast  Level Estimated
04:02AM 3.3628 -64.8134 147° Southeast  Level Estimated
04:03AM 3.2426 -64.7358 147° Southeast  Level Estimated
04:04AM 3.1224 -64.6583 147° Southeast  Level Estimated
04:05AM 3.0022 -64.5807 147° Southeast  Level Estimated
04:06AM 2.8820 -64.5032 147° Southeast  Level Estimated
04:07AM 2.7618 -64.4257 147° Southeast  Level Estimated
04:08AM 2.6416 -64.3482 147° Southeast  Level Estimated
04:09AM 2.5214 -64.2707 147° Southeast  Level Estimated
04:10AM 2.4012 -64.1933 147° Southeast  Level Estimated
04:11AM 2.2810 -64.1158 147° Southeast  Level Estimated
04:12AM 2.1607 -64.0384 147° Southeast  Level Estimated
04:13AM 2.0405 -63.9610 147° Southeast  Level Estimated
04:14AM 1.9203 -63.8835 147° Southeast  Level Estimated
04:15AM 1.8000 -63.8061 147° Southeast  Level Estimated
04:16AM 1.6798 -63.7288 147° Southeast  Level Estimated
04:17AM 1.5596 -63.6514 147° Southeast  Level Estimated
04:18AM 1.4393 -63.5740 147° Southeast  Level Estimated
04:19AM 1.3190 -63.4967 147° Southeast  Level Estimated
04:20AM 1.1988 -63.4193 147° Southeast  Level Estimated
04:21AM 1.0785 -63.3419 147° Southeast  Level Estimated
04:22AM 0.9583 -63.2646 147° Southeast  Level Estimated
04:23AM 0.8380 -63.1873 147° Southeast  Level Estimated
04:24AM 0.7178 -63.1099 147° Southeast  Level Estimated
04:25AM 0.5975 -63.0326 147° Southeast  Level Estimated
04:26AM 0.4773 -62.9553 147° Southeast  Level Estimated
04:27AM 0.3570 -62.8780 147° Southeast  Level Estimated
04:28AM 0.2367 -62.8006 147° Southeast  Level Estimated
04:29AM 0.1165 -62.7233 147° Southeast  Level Estimated
04:30AM -0.0038 -62.6460 147° Southeast  Level Estimated
04:31AM -0.1240 -62.5687 147° Southeast  Level Estimated
04:32AM -0.2443 -62.4914 147° Southeast  Level Estimated
04:33AM -0.3646 -62.4140 147° Southeast  Level Estimated
04:34AM -0.4848 -62.3367 147° Southeast  Level Estimated
04:35AM -0.6051 -62.2594 147° Southeast  Level Estimated
04:36AM -0.7254 -62.1821 147° Southeast  Level Estimated
04:37AM -0.8456 -62.1047 147° Southeast  Level Estimated
04:38AM -0.9659 -62.0274 147° Southeast  Level Estimated
04:39AM -1.0861 -61.9501 147° Southeast  Level Estimated
04:40AM -1.2064 -61.8727 147° Southeast  Level Estimated
04:41AM -1.3266 -61.7953 147° Southeast  Level Estimated
04:42AM -1.4469 -61.7180 147° Southeast  Level Estimated
04:43AM -1.5671 -61.6406 147° Southeast  Level Estimated
04:44AM -1.6874 -61.5632 147° Southeast  Level Estimated
04:45AM -1.8076 -61.4858 147° Southeast  Level Estimated
04:46AM -1.9279 -61.4084 147° Southeast  Level Estimated
04:46AM -1.6990 -61.5370 147° Southeast 491 565 41,000  Level FlightAware
04:46AM -1.7820 -61.4820 146° Southeast 490 564 41,000  Level FlightAware
04:47AM -1.8600 -61.4310 147° Southeast 490 564 41,000  Level FlightAware
04:48AM -1.9420 -61.3760 146° Southeast 489 563 41,000  Level FlightAware
04:48AM -2.0180 -61.3260 147° Southeast 488 562 41,000  Level FlightAware
04:49AM -2.0980 -61.2730 146° Southeast 488 562 41,000  Level FlightAware
04:50AM -2.2070 -61.2010 147° Southeast 488 562 41,000  Level FlightAware
04:51AM -2.2820 -61.1510 146° Southeast 488 562 41,000  Level FlightAware
04:51AM -2.3530 -61.1040 147° Southeast 487 560 41,000  Level FlightAware
04:52AM -2.4370 -61.0480 146° Southeast 488 562 41,000  Level FlightAware
04:53AM -2.5230 -60.9910 146° Southeast 486 559 41,000  Level FlightAware
04:53AM -2.5990 -60.9410 147° Southeast 487 560 41,000  Level FlightAware
04:54AM -2.6810 -60.8860 146° Southeast 487 560 41,000  Level FlightAware
04:55AM -2.7550 -60.8370 147° Southeast 487 560 41,000  Level FlightAware
04:56AM -2.8390 -60.7820 147° Southeast 486 559 41,000  Level FlightAware
04:56AM -2.9150 -60.7320 147° Southeast 486 559 41,000  Level FlightAware
04:57AM -2.9900 -60.6820 146° Southeast 485 558 41,000  Level FlightAware
04:58AM -3.0770 -60.6260 147° Southeast 485 558 41,000  Level FlightAware
04:58AM -3.1560 -60.5730 146° Southeast 487 560 41,000  Level FlightAware
04:59AM -3.2290 -60.5250 147° Southeast 487 560 41,000  Level FlightAware
05:00AM -3.3110 -60.4710 147° Southeast 487 560 41,000  Level FlightAware
05:01AM -3.3940 -60.4170 147° Southeast 488 562 41,000  Level FlightAware
05:01AM -3.4650 -60.3710 147° Southeast 488 562 41,000  Level FlightAware
05:02AM -3.5380 -60.3230 147° Southeast 487 560 41,000  Level FlightAware
05:03AM -3.6030 -60.2770 145° Southeast 488 562 41,000  Level FlightAware
05:03AM -3.7040 -60.2130 148° Southeast 486 559 41,000  Level FlightAware
05:04AM -3.7880 -60.1590 147° Southeast 485 558 41,000  Level FlightAware
05:05AM -3.8550 -60.1160 147° Southeast 484 557 41,000  Level FlightAware
05:05AM -3.9320 -60.0630 146° Southeast 484 557 41,000  Level FlightAware
05:06AM -4.0280 -60.0020 148° Southeast 484 557 41,000  Level FlightAware
05:07AM -4.1230 -59.9400 147° Southeast 485 558 41,000  Level FlightAware
05:08AM -4.1970 -59.8910 147° Southeast 485 558 41,000  Level FlightAware
05:08AM -4.2550 -59.8510 145° Southeast 485 558 41,000  Level FlightAware
05:09AM -4.3280 -59.8020 146° Southeast 485 558 41,000  Level FlightAware
05:10AM -4.4170 -59.7420 146° Southeast 485 558 41,000  Level FlightAware
05:12AM -4.5750 -59.6350 146° Southeast 485 558 41,000  Level FlightAware
05:12AM -4.6510 -59.5840 146° Southeast 485 558 41,000  Level FlightAware
05:13AM -4.7070 -59.5450 145° Southeast 485 558 41,000  Level FlightAware
05:14AM -4.7830 -59.4940 146° Southeast 485 558 41,000  Level FlightAware
05:14AM -4.8400 -59.4550 146° Southeast 485 558 41,000  Level FlightAware
05:16AM -4.9750 -59.3640 146° Southeast 485 558 41,000  Level FlightAware
05:16AM -5.0280 -59.3280 146° Southeast 485 558 41,000  Level FlightAware
05:19AM -5.2741 -59.1692 147° Southeast  Level Estimated
05:20AM -5.3942 -59.0916 147° Southeast  Level Estimated
05:21AM -5.5142 -59.0141 147° Southeast  Level Estimated
05:22AM -5.6342 -58.9365 147° Southeast  Level Estimated
05:23AM -5.7542 -58.8588 147° Southeast  Level Estimated
05:24AM -5.8742 -58.7812 147° Southeast  Level Estimated
05:25AM -5.9942 -58.7035 147° Southeast  Level Estimated
05:26AM -6.1142 -58.6258 147° Southeast  Level Estimated
05:27AM -6.2342 -58.5480 147° Southeast  Level Estimated
05:28AM -6.3541 -58.4702 147° Southeast  Level Estimated
05:29AM -6.4741 -58.3924 147° Southeast  Level Estimated
05:30AM -6.5942 -58.3144 147° Southeast  Level Estimated
05:31AM -6.7143 -58.2363 147° Southeast  Level Estimated
05:32AM -6.8345 -58.1582 147° Southeast  Level Estimated
05:33AM -6.9546 -58.0801 147° Southeast  Level Estimated
05:34AM -7.0747 -58.0019 147° Southeast  Level Estimated
05:35AM -7.1947 -57.9237 147° Southeast  Level Estimated
05:36AM -7.3148 -57.8455 147° Southeast  Level Estimated
05:37AM -7.4349 -57.7672 147° Southeast  Level Estimated
05:38AM -7.5549 -57.6889 147° Southeast  Level Estimated
05:39AM -7.6749 -57.6105 147° Southeast  Level Estimated
05:40AM -7.7950 -57.5321 147° Southeast  Level Estimated
05:41AM -7.9149 -57.4536 147° Southeast  Level Estimated
05:42AM -8.0349 -57.3751 147° Southeast  Level Estimated
05:43AM -8.1549 -57.2965 147° Southeast  Level Estimated
05:44AM -8.2748 -57.2179 147° Southeast  Level Estimated
05:45AM -8.3948 -57.1393 147° Southeast  Level Estimated
05:46AM -8.5147 -57.0606 147° Southeast  Level Estimated
05:47AM -8.6346 -56.9818 147° Southeast  Level Estimated
05:48AM -8.7545 -56.9030 147° Southeast  Level Estimated
05:49AM -8.8744 -56.8242 147° Southeast  Level Estimated
05:50AM -8.9942 -56.7453 147° Southeast  Level Estimated
05:51AM -9.1141 -56.6663 147° Southeast  Level Estimated
05:52AM -9.2339 -56.5873 147° Southeast  Level Estimated
05:53AM -9.3537 -56.5083 147° Southeast  Level Estimated
05:54AM -9.4735 -56.4291 147° Southeast  Level Estimated
05:55AM -9.5933 -56.3500 147° Southeast  Level Estimated
05:56AM -9.7130 -56.2707 147° Southeast  Level Estimated
05:57AM -9.8328 -56.1914 147° Southeast  Level Estimated
05:58AM -9.9525 -56.1121 147° Southeast  Level Estimated
05:59AM -10.0722 -56.0327 147° Southeast  Level Estimated
06:00AM -10.1919 -55.9533 147° Southeast  Level Estimated
06:01AM -10.3113 -55.8739 147° Southeast  Level Estimated
06:02AM -10.4307 -55.7944 147° Southeast  Level Estimated
06:03AM -10.5501 -55.7149 147° Southeast  Level Estimated
06:04AM -10.6695 -55.6354 147° Southeast  Level Estimated
06:05AM -10.7889 -55.5558 147° Southeast  Level Estimated
06:06AM -10.9083 -55.4761 147° Southeast  Level Estimated
06:07AM -11.0276 -55.3963 147° Southeast  Level Estimated
06:08AM -11.1469 -55.3165 147° Southeast  Level Estimated
06:09AM -11.2662 -55.2366 147° Southeast  Level Estimated
06:10AM -11.3855 -55.1567 147° Southeast  Level Estimated
06:11AM -11.5047 -55.0767 147° Southeast  Level Estimated
06:12AM -11.6239 -54.9966 147° Southeast  Level Estimated
06:13AM -11.7431 -54.9164 147° Southeast  Level Estimated
06:14AM -11.8623 -54.8362 147° Southeast  Level Estimated
06:15AM -11.9817 -54.7558 147° Southeast  Level Estimated
06:16AM -12.1010 -54.6753 147° Southeast  Level Estimated
06:17AM -12.2203 -54.5947 147° Southeast  Level Estimated
06:18AM -12.3396 -54.5141 147° Southeast  Level Estimated
06:19AM -12.4589 -54.4333 147° Southeast  Level Estimated
06:20AM -12.5782 -54.3526 147° Southeast  Level Estimated
06:21AM -12.6974 -54.2717 147° Southeast  Level Estimated
06:22AM -12.8166 -54.1907 146° Southeast  Level Estimated
06:23AM -12.9358 -54.1097 146° Southeast  Level Estimated
06:24AM -13.0549 -54.0286 146° Southeast  Level Estimated
06:25AM -13.1740 -53.9474 146° Southeast  Level Estimated
06:26AM -13.2931 -53.8662 146° Southeast  Level Estimated
06:27AM -13.4122 -53.7848 146° Southeast  Level Estimated
06:28AM -13.5312 -53.7034 146° Southeast  Level Estimated
06:29AM -13.6503 -53.6219 146° Southeast  Level Estimated
06:30AM -13.7693 -53.5403 146° Southeast  Level Estimated
06:31AM -13.8882 -53.4587 146° Southeast  Level Estimated
06:32AM -14.0072 -53.3769 146° Southeast  Level Estimated
06:33AM -14.1261 -53.2951 146° Southeast  Level Estimated
06:34AM -14.2450 -53.2132 146° Southeast  Level Estimated
06:35AM -14.3638 -53.1312 146° Southeast  Level Estimated
06:36AM -14.4827 -53.0491 146° Southeast  Level Estimated
06:37AM -14.6015 -52.9669 146° Southeast  Level Estimated
06:38AM -14.7202 -52.8846 146° Southeast  Level Estimated
06:39AM -14.8390 -52.8023 146° Southeast  Level Estimated
06:40AM -14.9577 -52.7198 146° Southeast  Level Estimated
06:41AM -15.0764 -52.6373 146° Southeast  Level Estimated
06:42AM -15.1950 -52.5546 146° Southeast  Level Estimated
06:43AM -15.3136 -52.4719 146° Southeast  Level Estimated
06:44AM -15.4322 -52.3891 146° Southeast  Level Estimated
06:45AM -15.5508 -52.3062 146° Southeast  Level Estimated
06:46AM -15.6693 -52.2232 146° Southeast  Level Estimated
06:47AM -15.7878 -52.1401 146° Southeast  Level Estimated
06:48AM -15.9063 -52.0569 146° Southeast  Level Estimated
06:49AM -16.0247 -51.9736 146° Southeast  Level Estimated
06:50AM -16.1431 -51.8902 146° Southeast  Level Estimated
06:51AM -16.2615 -51.8067 146° Southeast  Level Estimated
06:52AM -16.3798 -51.7231 146° Southeast  Level Estimated
06:53AM -16.4981 -51.6394 146° Southeast  Level Estimated
06:54AM -16.6164 -51.5556 146° Southeast  Level Estimated
06:55AM -16.7346 -51.4717 146° Southeast  Level Estimated
06:56AM -16.8529 -51.3876 146° Southeast  Level Estimated
06:57AM -16.9710 -51.3035 146° Southeast  Level Estimated
06:58AM -17.0892 -51.2193 146° Southeast  Level Estimated
06:59AM -17.2073 -51.1350 146° Southeast  Level Estimated
07:00AM -17.3253 -51.0505 146° Southeast  Level Estimated
07:01AM -17.4434 -50.9660 146° Southeast  Level Estimated
07:02AM -17.5614 -50.8813 146° Southeast  Level Estimated
07:03AM -17.6793 -50.7966 146° Southeast  Level Estimated
07:04AM -17.7973 -50.7117 146° Southeast  Level Estimated
07:05AM -17.9151 -50.6267 146° Southeast  Level Estimated
07:06AM -18.0330 -50.5416 146° Southeast  Level Estimated
07:07AM -18.1508 -50.4564 146° Southeast  Level Estimated
07:08AM -18.2686 -50.3710 145° Southeast  Level Estimated
07:09AM -18.3863 -50.2856 145° Southeast  Level Estimated
07:09AM -17.8660 -50.7900 145° Southeast 496 571 41,000  Level FlightAware
07:09AM -17.9340 -50.7360 143° Southeast 496 571 41,000  Level FlightAware
07:10AM -18.5040 -50.2000 145° Southeast  Level Estimated
07:11AM -18.0310 -50.6590 143° Southeast 497 572 41,000  Level FlightAware
07:11AM -18.1520 -50.5620 143° Southeast 497 572 41,000  Level FlightAware
07:12AM -18.2260 -50.5020 142° Southeast 497 572 41,000  Level FlightAware
07:13AM -18.3050 -50.4380 142° Southeast 497 572 41,000  Level FlightAware
07:14AM -18.3820 -50.3750 142° Southeast 497 572 41,000  Level FlightAware
07:14AM -18.4370 -50.3280 141° Southeast 497 572 41,000  Level FlightAware
07:15AM -18.5100 -50.2660 141° Southeast 497 572 41,000  Level FlightAware
07:16AM -18.6070 -50.1910 144° Southeast 497 572 41,000  Level FlightAware
07:16AM -18.6870 -50.1250 142° Southeast 497 572 41,000  Level FlightAware
07:17AM -18.7640 -50.0620 142° Southeast 496 571 41,000  Level FlightAware
07:18AM -18.8380 -50.0020 143° Southeast 495 570 41,000  Level FlightAware
07:18AM -18.9150 -49.9380 142° Southeast 495 570 41,000  Level FlightAware
07:19AM -18.9940 -49.8730 142° Southeast 495 570 41,000  Level FlightAware
07:20AM -19.0550 -49.8230 142° Southeast 495 570 41,000  Level FlightAware
07:21AM -19.1500 -49.7520 145° Southeast 492 566 41,000  Level FlightAware
07:21AM -19.2250 -49.6970 145° Southeast 493 567 41,000  Level FlightAware
07:22AM -19.2940 -49.6440 144° Southeast 493 567 41,000  Level FlightAware
07:23AM -19.3830 -49.5770 145° Southeast 493 567 41,000  Level FlightAware
07:23AM -19.4560 -49.5210 144° Southeast 492 566 41,000  Level FlightAware
07:24AM -19.5390 -49.4590 145° Southeast 492 566 41,000  Level FlightAware
07:25AM -19.6090 -49.4050 144° Southeast 492 566 41,000  Level FlightAware
07:25AM -19.6800 -49.3510 144° Southeast 492 566 41,000  Level FlightAware
07:26AM -19.7430 -49.3040 145° Southeast 492 566 41,000  Level FlightAware
07:27AM -19.8250 -49.2420 145° Southeast 492 566 41,000  Level FlightAware
07:27AM -19.8990 -49.1850 144° Southeast 493 567 41,000  Level FlightAware
07:28AM -19.9780 -49.1250 144° Southeast 493 567 41,000  Level FlightAware
07:29AM -20.0580 -49.0640 144° Southeast 493 567 41,000  Level FlightAware
07:29AM -20.1400 -49.0010 144° Southeast 493 567 41,000  Level FlightAware
07:30AM -20.2080 -48.9490 144° Southeast 493 567 41,000  Level FlightAware
07:31AM -20.2850 -48.8900 144° Southeast 493 567 41,000  Level FlightAware
07:32AM -20.3670 -48.8270 144° Southeast 494 568 41,000  Level FlightAware
07:32AM -20.4470 -48.7660 144° Southeast 494 568 41,000  Level FlightAware
07:33AM -20.5260 -48.7050 144° Southeast 494 568 41,000  Level FlightAware
07:34AM -20.5960 -48.6510 144° Southeast 494 568 41,000  Level FlightAware
07:34AM -20.6850 -48.5820 144° Southeast 493 567 41,000  Level FlightAware
07:35AM -20.7630 -48.5220 144° Southeast 492 566 41,000  Level FlightAware
07:36AM -20.8340 -48.4670 144° Southeast 492 566 41,000  Level FlightAware
07:36AM -20.9150 -48.4040 144° Southeast 492 566 41,000  Level FlightAware
07:37AM -20.9900 -48.3470 145° Southeast 492 566 41,000  Level FlightAware
07:38AM -21.0520 -48.2980 144° Southeast 492 566 41,000  Level FlightAware
07:39AM -21.1470 -48.2240 144° Southeast 492 566 41,000  Level FlightAware
07:39AM -21.2220 -48.1660 144° Southeast 493 567 41,000  Level FlightAware
07:40AM -21.2970 -48.1080 144° Southeast 484 557 41,000 -840 Level FlightAware
07:41AM -21.4260 -48.0070 144° Southeast 486 559 39,500 -1,620 Descending FlightAware
07:42AM -21.5080 -47.9420 144° Southeast 487 560 38,700 -1,200 Descending FlightAware
07:42AM -21.5820 -47.8850 144° Southeast 486 559 37,800 -1,680 Descending FlightAware
07:43AM -21.6630 -47.8210 144° Southeast 482 555 36,400 -1,920 Descending FlightAware
07:44AM -21.7270 -47.7700 143° Southeast 474 545 35,300 -1,080 Descending FlightAware
07:45AM -21.8070 -47.7080 144° Southeast 460 529 35,000 -720 Descending FlightAware
07:45AM -21.8810 -47.6500 144° Southeast 463 533 34,300 -1,440 Descending FlightAware
07:46AM -21.9490 -47.5960 144° Southeast 454 522 33,100 -1,860 Descending FlightAware
07:47AM -22.0200 -47.5400 144° Southeast 447 514 31,800 -1,800 Descending FlightAware
07:47AM -22.0930 -47.4820 144° Southeast 438 504 30,600 -1,620 Descending FlightAware
07:48AM -22.1580 -47.4310 144° Southeast 427 491 29,500 -2,220 Descending FlightAware
07:49AM -22.2250 -47.3780 144° Southeast 437 503 27,600 -2,280 Descending FlightAware
07:50AM -22.2990 -47.3190 144° Southeast 436 502 26,300 -1,980 Descending FlightAware
07:50AM -22.3690 -47.2630 144° Southeast 455 524 24,800 -2,100 Descending FlightAware
07:51AM -22.4370 -47.2090 144° Southeast 451 519 23,500 -1,320 Descending FlightAware
07:52AM -22.5480 -47.1200 143° Southeast 443 510 22,300 -780 Descending FlightAware
07:53AM -22.5030 -47.1570 323° Northwest 441 507 22,100 -1,500 Descending FlightAware
07:53AM -22.5940 -47.0920 147° Southeast 423 487 20,400 -3,000 Descending FlightAware
07:54AM -22.7220 -47.0370 158° South 406 467 17,700 -3,420 Descending FlightAware
07:55AM -22.8640 -46.9770 159° South 384 442 15,100 -2,520 Descending FlightAware
07:56AM -22.9420 -46.9450 159° South 371 427 13,600 -2,040 Descending FlightAware
07:56AM -23.0000 -46.9200 158° South 338 389 12,300 -1,860 Descending FlightAware
07:57AM -23.0600 -46.8950 159° South 296 341 11,100 -1,560 Descending FlightAware
07:58AM -23.1130 -46.8720 158° South 285 328 10,100 -1,200 Descending FlightAware
07:58AM -23.1470 -46.8580 159° South 269 310 9,700 -840 Descending FlightAware
07:59AM -23.1650 -46.8510 160° South 273 314 9,500 -840 Descending FlightAware
07:59AM -23.1990 -46.8360 158° South 278 320 9,100 -960 Descending FlightAware
08:00AM -23.2340 -46.8180 155° Southeast 274 315 8,600 -960 Descending FlightAware
08:00AM -23.2560 -46.8040 150° Southeast 274 315 8,300 -1,020 Descending FlightAware
08:00AM -23.2930 -46.7820 151° Southeast 264 304 7,700 -1,020 Descending FlightAware
08:01AM -23.3220 -46.7650 152° Southeast 243 280 7,300 -900 Descending FlightAware
08:01AM -23.3340 -46.7580 152° Southeast 237 273 7,100 -900 Descending FlightAware
08:02AM -23.3610 -46.7420 151° Southeast 229 264 6,700 -1,140 Descending FlightAware
08:02AM -23.3840 -46.7290 153° Southeast 208 239 6,100 -1,680 Descending FlightAware
08:02AM -23.4000 -46.7200 153° Southeast 206 237 5,500 -1,140 Descending FlightAware
08:03AM -23.4250 -46.7060 153° Southeast 207 238 5,200 -240 Descending FlightAware
08:03AM -23.4470 -46.6900 146° Southeast 203 234 5,300 120 Climbing FlightAware
08:04AM -23.4530 -46.6790 121° Southeast 202 232 5,300 -360 Level FlightAware
08:04AM -23.4640 -46.6550 117° Southeast 196 226 5,100 -900 Descending FlightAware
08:04AM -23.4740 -46.6290 113° Southeast 193 222 4,500 -780 Descending FlightAware
08:05AM -23.4720 -46.6100 83° East 188 216 4,400 -300 Descending FlightAware
08:05AM -23.4700 -46.6010 76° East 174 200 4,300 -840 Descending FlightAware
08:06AM -23.4620 -46.5710 74° East 149 171 3,800 -960 Descending FlightAware
08:06AM -23.4560 -46.5520 71° East 133 153 3,400 -780 Descending FlightAware
08:07AM -23.4510 -46.5340 73° East 132 152 3,100 -660 Descending FlightAware
08:07AM -23.4480 -46.5210 76° East 137 158 2,900 -780 Descending FlightAware
08:07AM -23.4420 -46.4980 74° East 139 160 2,400 -840 Descending FlightAware
08:08AM -23.4380 -46.4820 75° East 136 157 2,100 -720 Descending FlightAware
08:08AM -23.4350 -46.4710 73° East 45 52 -5,040 Descending FlightAware
08:09AM -23.4340 -46.4690 61° Northeast 30 35  Level FlightAware
08:09AM -23.4320 -46.4670 43° Northeast 30 35  Level FlightAware